SL-8 R/B, 15006

Orbit data source: Space-Track

SL-8 R/B, 15006 is space debris in LEO originally from a launch on Mon, 28 May 1984 UTC launched from the Plesetsk Missile And Space Complex (PKMTR). Debris objects in space refer to the collection of defunct objects orbiting the Earth. Examples of debris include non-operational satellites, rocket bodies, and fragments generated from explosions, collisions, or faulty payload assembly.

Loading next visibility...
Identifier
15006, 1984-052J
Orbit
LEO
Country
Flag of CISCIS
Related business
Manufacturer
Omsk Av. Zav.
Mission
Spacecraft
Bus & Motor
S3, Unknown motor
Mass
1,434 kg wet, 1,434 kg dry
Launch date (UTC)
1984-05-28 (42 years ago)
Launch vehicle
Unknown
Launch site
Plesetsk Missile And Space Complex (PKMTR)
Object type
Payload
Rocket body
Debris
Shape & HBR
Unknown
Radar Cross Section
Large (>1 m²)

Expand to show TLE details & history
Last TLE update: 11 hours ago

TLE from 11 hours ago
0 SL-8 R/B
1 15006U 84052J   26037.00546846  .00000038  00000-0  46722-3 0  9997
2 15006  74.0139  20.4577 0131799 110.8972 307.2719 12.23748067862589
Epoch: 2026-02-06T00:07Z
TLE epoch observation values (Epoch: 2026-02-06T00:07:52.474Z)
Latitude
53.78882°
Longitude
-94.74602°
Altitude
1,522.062 km
Speed
7.137 km/s
True Right ascension
02h 53m 29s
True Declination
53° 38' 26"
Sunlit
Object was in daylight at epoch
Visualization orbit readout
Latitude
Unknown
Longitude
Unknown
Altitude
Unknown
Speed
Unknown
Apparent Right ascension
Unknown
Apparent Declination
Unknown
Sunlit
N/A
Visualization observer readout
Local Sidereal Time
12:44:12
Azimuth
Unknown
Elevation
Unknown
Doppler factor
Unknown
Orbital elements
Apogee altitude
1,678.934 km
Perigee altitude
1,469.314 km
Semi-major axis
7,952.261 km
Eccentricity
0.01318
Inclination
74.0139°
RAAN
20.4577°
Arg. of periapsis
110.8972°
True anomaly
306.05803°
Mean anomaly
307.2719°
Eccentric anomaly
306.66617°
Mean motion
3.0606 °/min
Orbital period
117.62 mins
BSTAR
0.00046722
Loading maneuver chart data...
Computing Atmospheric mass density...
Loading historical data...
Loading historical data...
Loading historical data...
Loading historical data...
Loading historical data...
Loading historical data...
Loading historical data...

Documentation

Showing up to 5 results
|